This demonstration page uses our WeatherBlox Daily Observations layout. Learn more.

Hourly Observations for November 9, 2018

Temp ( °F °C ) Dew Point ( °F °C ) Humidity (%) Winds ( mph kmh ) Pressure ( in mb ) Visibility ( mi km ) Precip ( " mm )
12:15 am 00:15 Cloudy 46 8 37 3 71 71 NNE 5 7 30.33 1027 10 16.09344 0 0
12:35 am 00:35 Mostly Cloudy 46 8 37 3 71 71 NNE 6 9 30.33 1027 10 16.09344 0 0
12:55 am 00:55 Partly Cloudy 45 7 37 3 76 76 N 5 7 30.33 1027 10 16.09344 0 0
1:15 am 01:15 Clear 45 7 37 3 76 76 NNE 5 7 30.33 1027 10 16.09344 0 0
1:35 am 01:35 Clear 45 7 39 4 81 81 NE 5 7 30.33 1027 10 16.09344 0 0
1:55 am 01:55 Partly Cloudy 45 7 39 4 81 81 Calm 30.33 1027 10 16.09344 0 0
2:15 am 02:15 Clear 45 7 39 4 81 81 NNE 3 6 30.36 1028 10 16.09344 0 0
2:35 am 02:35 Mostly Cloudy 45 7 39 4 81 81 NE 5 7 30.33 1027 10 16.09344 0 0
2:55 am 02:55 Cloudy with Light Rain 45 7 39 4 81 81 NE 5 7 30.33 1027 10 16.09344 0 0
3:15 am 03:15 Cloudy with Light Rain 45 7 41 5 87 87 NE 5 7 30.33 1027 10 16.09344 0 0
3:35 am 03:35 Cloudy 45 7 41 5 87 87 Calm 30.33 1027 10 16.09344 0 0
3:55 am 03:55 Cloudy 45 7 41 5 87 87 Calm 30.33 1027 10 16.09344 0 0
4:15 am 04:15 Cloudy 45 7 41 5 87 87 ENE 5 7 30.33 1027 10 16.09344 0 0
4:35 am 04:35 Cloudy with Light Rain 45 7 41 5 87 87 ENE 6 9 30.3 1026 10 16.09344 0 0
4:55 am 04:55 Cloudy 45 7 41 5 87 87 NNE 3 6 30.33 1027 10 16.09344 0 0
5:15 am 05:15 Cloudy 45 7 39 4 81 81 NE 3 6 30.3 1026 10 16.09344 0 0
5:35 am 05:35 Cloudy 45 7 39 4 81 81 ENE 5 7 30.3 1026 10 16.09344 0 0
5:55 am 05:55 Cloudy 45 7 37 3 76 76 ENE 5 7 30.3 1026 10 16.09344 0 0
6:15 am 06:15 Cloudy 45 7 37 3 76 76 ENE 5 7 30.3 1026 10 16.09344 0 0
6:35 am 06:35 Cloudy 45 7 37 3 76 76 ENE 5 7 30.27 1025 10 16.09344 0 0
6:55 am 06:55 Cloudy 45 7 37 3 76 76 ENE 3 6 30.27 1025 10 16.09344 0 0
7:15 am 07:15 Cloudy 45 7 37 3 76 76 E 6 9 30.27 1025 10 16.09344 0 0
7:35 am 07:35 Cloudy with Drizzle 45 7 37 3 76 76 E 5 7 30.27 1025 10 16.09344 0 0
7:55 am 07:55 Cloudy with Light Drizzle 45 7 39 4 81 81 ESE 5 7 30.27 1025 10 16.09344 0 0
8:15 am 08:15 Cloudy 45 7 41 5 87 87 ESE 5 7 30.27 1025 10 16.09344 0 0
8:35 am 08:35 Cloudy with Light Rain 45 7 41 5 87 87 ESE 9 15 30.27 1025 10 16.09344 0 0
8:55 am 08:55 Cloudy with Light Drizzle 45 7 43 6 93 93 ESE 7 11 30.24 1024 10 16.09344 0 0
9:15 am 09:15 Cloudy 45 7 43 6 93 93 SE 7 11 30.24 1024 10 16.09344 0 0
9:35 am 09:35 Cloudy 45 7 43 6 93 93 SE 6 9 30.24 1024 7 11.265408 0 0
9:55 am 09:55 Cloudy 45 7 43 6 93 93 ESE 5 7 30.21 1023 10 16.09344 0 0
10:15 am 10:15 Cloudy 45 7 43 6 93 93 ESE 3 6 30.21 1023 10 16.09344 0 0
10:35 am 10:35 Cloudy 45 7 43 6 93 93 ESE 3 6 30.18 1022 10 16.09344 0 0
10:55 am 10:55 Cloudy 45 7 43 6 93 93 ESE 6 9 30.18 1022 10 16.09344 0 0
11:15 am 11:15 Cloudy 46 8 45 7 93 93 SE 3 6 30.15 1021 10 16.09344 0 0
11:35 am 11:35 Cloudy 46 8 45 7 93 93 Calm 30.15 1021 10 16.09344 0 0
11:55 am 11:55 Cloudy with Drizzle 46 8 45 7 93 93 Calm 30.15 1021 4 6.437376 0 0
12:15 pm 12:15 Cloudy with Light Rain 46 8 45 7 93 93 Calm 30.12 1020 5 8.04672 0 0
12:35 pm 12:35 Cloudy with Heavy Rain 45 7 45 7 100 100 Calm 30.09 1019 2 3.218688 0.02 0.508
12:55 pm 12:55 Cloudy with Light Rain 45 7 45 7 100 100 NNW 3 6 30.09 1019 3 4.828032 0.04 1.016
1:15 pm 13:15 Cloudy with Light Rain 45 7 45 7 100 100 NNW 5 7 30.06 1018 2 3.218688 0 0
1:35 pm 13:35 Cloudy with Rain 45 7 45 7 100 100 NW 3 6 30.09 1019 2 3.218688 0.03 0.762
1:55 pm 13:55 Cloudy with Rain 45 7 45 7 100 100 NNW 3 6 30.06 1018 2 3.218688 0.06 1.524
2:15 pm 14:15 Cloudy with Heavy Rain 45 7 45 7 100 100 NNW 9 15 30.09 1019 2.5 4.02336 0.1 2.54
2:35 pm 14:35 Cloudy with Rain 45 7 45 7 100 100 NNE 8 13 30.06 1018 3 4.828032 0.16 4.064
2:55 pm 14:55 Cloudy with Rain 43 6 43 6 100 100 NNE 7 11 30.03 1017 4 6.437376 0.23 5.842
3:15 pm 15:15 Cloudy with Rain 43 6 43 6 100 100 N 8 13 30.06 1018 4 6.437376 0.02 0.508
3:35 pm 15:35 Cloudy with Heavy Rain 43 6 43 6 100 100 NNE 7 11 30.03 1017 3 4.828032 0.07 1.778
3:55 pm 15:55 Cloudy with Rain 43 6 43 6 100 100 NNE 7 11 30.03 1017 1.75 2.816352 0.15 3.81
4:15 pm 16:15 Cloudy with Light Rain 43 6 43 6 100 100 NNE 7 11 30 1016 5 8.04672 0.01 0.254
4:35 pm 16:35 Cloudy with Light Rain 43 6 43 6 100 100 NNE 7 11 30 1016 5 8.04672 0.02 0.508
4:55 pm 16:55 Cloudy with Drizzle 43 6 43 6 100 100 NNE 8 13 30 1016 7 11.265408 0.02 0.508
5:15 pm 17:15 Cloudy with Rain 41 5 41 5 100 100 NNE 6 9 29.97 1015 2.5 4.02336 0.05 1.27
5:35 pm 17:35 Cloudy with Light Rain 41 5 41 5 100 100 NNE 6 9 29.97 1015 5 8.04672 0.06 1.524
5:55 pm 17:55 Cloudy 41 5 41 5 100 100 NNE 3 6 29.97 1015 7 11.265408 0.06 1.524
6:15 pm 18:15 Cloudy with Light Drizzle 41 5 41 5 100 100 Calm 29.97 1015 3 4.828032 0 0
6:35 pm 18:35 Cloudy with Mist and Fog 41 5 41 5 100 100 Calm 29.94 1014 5 8.04672 0 0
6:55 pm 18:55 Cloudy 41 5 41 5 100 100 N 6 9 29.97 1015 7 11.265408 0 0
7:15 pm 19:15 Cloudy 41 5 41 5 100 100 N 6 9 29.94 1014 7 11.265408 0 0
7:35 pm 19:35 Cloudy 43 6 43 6 100 100 Calm 29.97 1015 7 11.265408 0 0
7:55 pm 19:55 Cloudy 43 6 43 6 100 100 Calm 29.94 1014 7 11.265408 0 0
8:15 pm 20:15 Cloudy 43 6 43 6 100 100 Calm 29.94 1014 7 11.265408 0 0
8:35 pm 20:35 Cloudy 43 6 43 6 100 100 Calm 29.94 1014 10 16.09344 0 0
8:55 pm 20:55 Cloudy 43 6 43 6 100 100 Calm 29.94 1014 7 11.265408 0 0
9:15 pm 21:15 Cloudy 43 6 43 6 100 100 Calm 29.94 1014 7 11.265408 0 0
9:35 pm 21:35 Cloudy 43 6 43 6 100 100 Calm 29.94 1014 7 11.265408 0 0
9:55 pm 21:55 Cloudy 43 6 43 6 100 100 WNW 5 7 29.94 1014 7 11.265408 0 0
10:15 pm 22:15 Cloudy 43 6 43 6 100 100 WNW 6 9 29.97 1015 10 16.09344 0 0
10:35 pm 22:35 Cloudy 43 6 43 6 100 100 W 9 15 29.97 1015 10 16.09344 0 0
10:55 pm 22:55 Cloudy 43 6 43 6 100 100 W 7 11 29.97 1015 10 16.09344 0 0
11:15 pm 23:15 Cloudy 43 6 43 6 100 100 WNW 7 11 29.97 1015 10 16.09344 0 0
11:35 pm 23:35 Cloudy 43 6 43 6 100 100 NNW 8 13 29.97 1015 10 16.09344 0 0
11:55 pm 23:55 Cloudy 43 6 43 6 100 100 NNW 9 15 29.97 1015 10 16.09344 0 0

Powered by AerisWeather